STARLINK-4055, 53161

Orbit data source: Space-Track

STARLINK-4055, 53161 is a payload satellite owned by SpaceX/Seattle (US) in LEO that was launched on Sun, 17 Jul 2022 UTC via an FALCON 9 launch vehicle from the Air Force Eastern Test Range (AFETR). Payload-class satellites include a variety of spacecraft equipped with specific instruments for various scientific and technological missions. These include communications satellites like Starlink; space stations such as the ISS; scientific satellites like the Hubble; Earth observation satellites from companies like Planet Labs, Umbra, and HawkEye 360; GPS; miniature CubeSats for education and research; and military/defense satellites.

Loading next visibility...
Identifier
53161, 2022-083AF
Orbit
LEO
Country
Flag of USUS
Related business
Manufacturer
SpaceX/Seattle
Mission
Operational Commercial Communications
Bus & Motor
STARLINK, Unknown motor
Mass
297 kg wet, ~275 kg dry
Launch date (UTC)
2022-07-17 (4 years ago)
Launch vehicle
FALCON 9
Launch site
Air Force Eastern Test Range (AFETR)
Object type
Payload
Rocket body
Debris
Shape & HBR
Box + 1 Pan, 10.1 m
Radar Cross Section
13.562 m², Large (>1 m²)

Expand to show TLE details & history
Last TLE update: 2 days ago

TLE from 2 days ago
0 STARLINK-4055
1 53161U 22083AF  26170.97233069  .00001421  00000-0  10737-3 0  9995
2 53161  53.1611  64.8468 0001340  87.0058 273.1086 15.08844843216806
Epoch: 2026-06-19T23:20Z
TLE epoch observation values (Epoch: 2026-06-19T23:20:09.371Z)
Latitude
-0.00009°
Longitude
166.61405°
Altitude
540.57 km
Speed
7.593 km/s
True Right ascension
04h 19m 23s
True Declination
0° 00' 00"
Sunlit
Object was in daylight at epoch
Visualization orbit readout
Latitude
Unknown
Longitude
Unknown
Altitude
Unknown
Speed
Unknown
Apparent Right ascension
Unknown
Apparent Declination
Unknown
Sunlit
N/A
Visualization observer readout
Local Sidereal Time
21:24:46
Azimuth
Unknown
Elevation
Unknown
Doppler factor
Unknown
Orbital elements
Apogee altitude
540.91 km
Perigee altitude
539.056 km
Semi-major axis
6,918.12 km
Eccentricity
0.00013
Inclination
53.1611°
RAAN
64.8468°
Arg. of periapsis
87.0058°
True anomaly
273.09327°
Mean anomaly
273.1086°
Eccentric anomaly
273.10093°
Mean motion
3.77191 °/min
Orbital period
95.44 mins
BSTAR
0.00010737
Loading maneuver chart data...
Computing Atmospheric mass density...
Loading historical data...
Loading historical data...
Loading historical data...
Loading historical data...
Loading historical data...
Loading historical data...
Loading historical data...

Documentation

Showing up to 5 results
|